TimeCDT,TemperatureF,Dew PointF,Humidity,Sea Level PressureIn,VisibilityMPH,Wind Direction,Wind SpeedMPH,Gust SpeedMPH,PrecipitationIn,Events,Conditions,WindDirDegrees,DateUTC
12:56 AM,70.0,64.0,81,30.06,10.0,South,12.7,-,N/A,,Clear,180,2013-08-11 05:56:00
1:56 AM,69.1,63.0,81,30.06,10.0,South,15.0,-,N/A,,Clear,190,2013-08-11 06:56:00
2:56 AM,68.0,63.0,84,30.05,10.0,South,18.4,-,N/A,,Clear,190,2013-08-11 07:56:00
3:56 AM,66.9,62.1,84,30.04,10.0,South,15.0,-,N/A,,Clear,190,2013-08-11 08:56:00
4:56 AM,66.9,62.1,84,30.03,10.0,South,11.5,-,N/A,,Clear,190,2013-08-11 09:56:00
5:56 AM,64.9,62.1,90,30.03,10.0,SSW,9.2,-,N/A,,Clear,200,2013-08-11 10:56:00
6:56 AM,64.0,62.1,93,30.06,10.0,WSW,3.5,-,N/A,,Clear,250,2013-08-11 11:56:00
7:56 AM,66.0,62.1,87,30.02,10.0,SSW,9.2,-,N/A,,Clear,200,2013-08-11 12:56:00
8:56 AM,72.0,64.0,76,30.02,10.0,SSW,13.8,-,N/A,,Clear,210,2013-08-11 13:56:00
9:56 AM,75.0,64.0,69,30.02,10.0,SW,12.7,-,N/A,,Clear,230,2013-08-11 14:56:00
10:56 AM,79.0,64.9,62,30.03,10.0,WSW,12.7,-,N/A,,Partly Cloudy,240,2013-08-11 15:56:00
11:56 AM,78.1,66.0,66,30.04,10.0,SSW,12.7,-,N/A,,Clear,210,2013-08-11 16:56:00
12:56 PM,79.0,66.0,64,30.03,10.0,SW,11.5,-,N/A,,Clear,220,2013-08-11 17:56:00
1:56 PM,80.1,66.9,64,30.03,10.0,SW,11.5,-,N/A,,Clear,220,2013-08-11 18:56:00
2:56 PM,81.0,66.0,60,30.02,10.0,WSW,10.4,-,N/A,,Unknown,250,2013-08-11 19:56:00
3:56 PM,82.9,66.0,56,30.01,10.0,West,5.8,-,N/A,,Mostly Cloudy,260,2013-08-11 20:56:00
4:56 PM,84.9,66.9,55,29.99,10.0,West,6.9,-,N/A,,Scattered Clouds,270,2013-08-11 21:56:00
5:56 PM,82.9,68.0,60,29.99,10.0,NW,5.8,-,N/A,,Mostly Cloudy,310,2013-08-11 22:56:00
6:56 PM,82.0,69.1,65,29.99,10.0,North,10.4,-,N/A,,Overcast,350,2013-08-11 23:56:00
7:15 PM,78.8,69.8,74,30.01,10.0,NNE,11.5,-,N/A,Thunderstorm,Scattered Clouds,20,2013-08-12 00:15:00
7:56 PM,78.1,69.1,74,30.01,10.0,Calm,Calm,-,N/A,Thunderstorm,Mostly Cloudy,0,2013-08-12 00:56:00
8:39 PM,68.0,60.8,78,30.04,7.0,SSE,11.5,-,0.08,Rain-Thunderstorm,Light Thunderstorms and Rain,160,2013-08-12 01:39:00
8:56 PM,68.0,63.0,84,30.02,10.0,Variable,3.5,-,0.08,Thunderstorm,Overcast,0,2013-08-12 01:56:00
9:14 PM,66.2,62.6,88,30.03,10.0,Calm,Calm,-,0.01,,Scattered Clouds,0,2013-08-12 02:14:00
9:56 PM,68.0,64.0,87,30.01,10.0,Calm,Calm,-,0.01,,Clear,0,2013-08-12 02:56:00
10:56 PM,66.0,63.0,90,30.03,10.0,ESE,5.8,-,N/A,,Clear,120,2013-08-12 03:56:00
11:56 PM,64.9,63.0,93,30.03,10.0,Calm,Calm,-,N/A,,Clear,0,2013-08-12 04:56:00